• MPC Preparation (Info)

  • MPEC 2017-F186: 2017 FZ101

    The following Minor Planet Electronic Circular may be linked-to from your own Web pages, but must not otherwise be redistributed electronically.

    A form allowing access to any MPEC is at the bottom of this page.


    Read MPEC 2017-F185 Read MPEC 2017-F187


    M.P.E.C. 2017-F186                               Issued 2017 Mar. 29, 03:30 UT
    
         The Minor Planet Electronic Circulars contain information on unusual
             minor planets and routine data on comets.  They are published
        on behalf of Division F of the International Astronomical Union by the
              Minor Planet Center, Smithsonian Astrophysical Observatory,
                              Cambridge, MA 02138, U.S.A.
    
                 Prepared using the Tamkin Foundation Computer Network
    
                                  MPC@CFA.HARVARD.EDU
                URL https://www.minorplanetcenter.net/    ISSN 1523-6714
    
                                      2017 FZ101
    
    Observations:
         K17FA1Z  C2017 03 18.34062 11 03 23.641+30 08 43.73         21.3 wLEF186F51
         K17FA1Z  C2017 03 18.35254 11 03 20.526+30 07 45.31         21.5 wLEF186F51
         K17FA1Z  C2017 03 18.36348 11 03 17.662+30 06 52.02         21.3 wLEF186F51
         K17FA1Z  C2017 03 18.37455 11 03 14.766+30 05 57.74         21.5 wLEF186F51
         K17FA1Z* C2017 03 27.40683 10 29 20.346+15 55 32.00         21.3 wLEF186F51
         K17FA1Z  C2017 03 27.41908 10 29 17.737+15 54 16.75         21.2 wLEF186F51
         K17FA1Z  C2017 03 27.43131 10 29 15.102+15 53 01.17         20.9 wLEF186F51
         K17FA1Z  C2017 03 27.84661 10 27 54.93 +15 10 03.9          20.2 VSEF186033
         K17FA1Z  C2017 03 27.85105 10 27 54.04 +15 09 37.1          20.4 VSEF186033
         K17FA1Z  C2017 03 27.85551 10 27 53.11 +15 09 09.3          20.3 VSEF186033
         K17FA1Z  C2017 03 27.90788 10 27 42.30 +15 03 46.4          20.5 VSEF186033
         K17FA1Z  C2017 03 27.91234 10 27 41.39 +15 03 19.0          20.6 VSEF186033
         K17FA1Z  C2017 03 27.91678 10 27 40.47 +15 02 51.3          20.7 VSEF186033
         K17FA1Z  C2017 03 28.19648 10 26 46.95 +14 34 16.0          20.8 RoEF186926
         K17FA1Z  C2017 03 28.20321 10 26 45.56 +14 33 34.6          20.6 RoEF186926
         K17FA1Z  C2017 03 28.20991 10 26 44.17 +14 32 53.0          20.8 RoEF186926
         K17FA1Z _C2017 03 28.24579210 26 38.600+14 29 17.36         21.1 GUEF186568
         K17FA1Z _C2017 03 28.24678110 26 38.395+14 29 11.31         21.1 GUEF186568
         K17FA1Z _C2017 03 28.24777410 26 38.193+14 29 05.23         21.1 GUEF186568
    
    Observer details:
    033 Karl Schwarzschild Observatory, Tautenburg.  Observers F. Ludwig,
        B. Stecklum.  Measurer B. Stecklum.  1.34-m f/3 Schmidt + CCD.
    568 Mauna Kea.  Observers R. J. Wainscoat, C. Wipper.  Measurers M. Micheli,
        R. J. Wainscoat.  3.6-m Canada-France-Hawaii Telescope + CCD.
    926 Tenagra II Observatory.  Observers M. Schwartz, P. R. Holvorcem.  Measurer
        M. Schwartz.  0.81-m f/7 Ritchey-Chretien + CCD.
    F51 Pan-STARRS 1, Haleakala.  Observers B. Gibson, T. Goggia, S. Kahale,
        T. Lowe, A. Schultz, M. Willman.  Measurers K. Chambers, S. Chastel,
        L. Denneau, H. Flewelling, M. Huber, E. Lilly, E. Magnier, R. Wainscoat,
        C. Waters, R. Weryk.  1.8-m Ritchey-Chretien + CCD.
    
    Orbital elements:
    2017 FZ101                                               Earth MOID = 0.1796 AU
    Epoch 2017 Feb. 16.0 TT = JDT 2457800.5                 MPC
    M 333.55175              (2000.0)            P               Q
    n   0.45129836     Peri.  194.15123     -0.95413172     +0.29843285
    a   1.6832949      Node     3.49611     -0.22216185     -0.65228225
    e   0.3043495      Incl.   23.05920     -0.20069075     -0.69675369
    P   2.18           H   22.8           G   0.15           U   6
    Residuals in seconds of arc
    170318 F51  0.1-  0.1+    170327 033  0.2-  0.3-    170328 926  0.0   0.1+
    170318 F51  0.0   0.2-    170327 033  0.2+  0.2+    170328 926  0.1+  0.1-
    170318 F51  0.0   0.0     170327 033  0.1+  0.1-    170328 568  0.1-  0.0
    170318 F51  0.1+  0.0     170327 033  0.1+  0.0     170328 568  0.1-  0.0
    170327 F51  0.1-  0.2-    170327 033  0.3+  0.2+    170328 568  0.1-  0.0
    170327 F51  0.2+  0.1+    170327 033  0.2+  0.1-
    170327 F51  0.1-  0.1+    170328 926  0.1-  0.0
    
    Ephemeris:
    2017 FZ101               a,e,i = 1.68, 0.30, 23                  q = 1.1710
    Date    TT    R. A. (2000) Decl.     Delta      r     Elong.  Phase     V
    2017 02 27    12 17 51.9 +46 11 33   0.3173  1.2409   136.8    33.1    22.2
    ...
    2017 03 14    11 21 24.8 +35 32 08   0.2427  1.2049   146.9    26.8    21.3
    ...
    2017 03 22    10 48 48.5 +24 47 58   0.2207  1.1905   148.7    25.8    21.1
    ...
    2017 03 28    10 27 24.7 +14 54 47   0.2157  1.1822   145.5    28.5    21.1
    2017 03 29    10 24 13.8 +13 11 37   0.2159  1.1811   144.6    29.3    21.1
    2017 03 30    10 21 10.3 +11 28 09   0.2163  1.1800   143.7    30.1    21.1
    ...
    2017 04 05    10 05 27.9 +01 19 21   0.2250  1.1747   136.8    35.6    21.4
    ...
    2017 04 13    09 51 25.9 -10 36 00   0.2498  1.1712   127.4    42.9    21.8
    ...
    2017 04 28    09 42 58.9 -26 26 46   0.3212  1.1760   114.3    51.3    22.6
    
    A. U. Tomatic                (C) Copyright 2017 MPC           M.P.E.C. 2017-F186
    

    Read MPEC 2017-F185 Read MPEC 2017-F187


    MPEC number:

    Enter an MPEC number in one of the following forms:

    • 1997-B01 (the full form)
    • J97B01 (the packed version of the full form)
    • B01 (the abbreviated form)